�������l�o���
Date,Time,MP-1(��Sv/h),MP-2(��Sv/h),MP-3(��Sv/h),MP-4(��Sv/h),MP-5(��Sv/h),MP-6(��Sv/h),MP-7(��Sv/h),MP-8(��Sv/h),����,����(m/s),���J
2024/06/13,00:00,0.514,0.786,0.494,0.975,0.714,0.319,0.555,0.514,��,5.7,��
2024/06/13,00:10,0.513,0.785,0.493,0.975,0.716,0.320,0.555,0.514,��,5.9,��
2024/06/13,00:20,0.513,0.788,0.494,0.976,0.716,0.319,0.558,0.513,��,5.5,��
2024/06/13,00:30,0.513,0.786,0.492,0.977,0.715,0.321,0.557,0.516,��,6.0,��
2024/06/13,00:40,0.512,0.786,0.493,0.977,0.715,0.319,0.557,0.514,��,5.3,��
2024/06/13,00:50,0.513,0.788,0.494,0.975,0.716,0.320,0.557,0.513,��,5.0,��
2024/06/13,01:00,0.512,0.786,0.492,0.975,0.715,0.320,0.557,0.515,��,4.9,��
2024/06/13,01:10,0.514,0.787,0.491,0.977,0.717,0.320,0.558,0.513,��,4.9,��
2024/06/13,01:20,0.513,0.787,0.493,0.976,0.716,0.319,0.558,0.513,��,5.2,��
2024/06/13,01:30,0.512,0.787,0.493,0.977,0.718,0.319,0.557,0.513,��,4.8,��
2024/06/13,01:40,0.512,0.787,0.491,0.977,0.717,0.320,0.557,0.514,��,5.2,��
2024/06/13,01:50,0.513,0.786,0.494,0.976,0.716,0.319,0.559,0.514,��,4.5,��
2024/06/13,02:00,0.513,0.785,0.494,0.976,0.717,0.319,0.557,0.515,��,4.8,��
2024/06/13,02:10,0.512,0.787,0.494,0.975,0.717,0.319,0.558,0.515,��,5.3,��
2024/06/13,02:20,0.513,0.785,0.492,0.973,0.715,0.319,0.558,0.514,��,5.4,��
2024/06/13,02:30,0.514,0.785,0.491,0.975,0.715,0.319,0.558,0.515,��,4.7,��
2024/06/13,02:40,0.514,0.786,0.492,0.976,0.717,0.320,0.557,0.514,��,5.2,��
2024/06/13,02:50,0.512,0.785,0.492,0.976,0.716,0.321,0.558,0.515,��,4.8,��
2024/06/13,03:00,0.512,0.785,0.493,0.974,0.714,0.321,0.559,0.514,��,4.3,��
2024/06/13,03:10,0.513,0.786,0.494,0.975,0.714,0.319,0.558,0.515,��,3.4,��
2024/06/13,03:20,0.513,0.786,0.493,0.976,0.718,0.321,0.558,0.514,��,3.2,��
2024/06/13,03:30,0.513,0.785,0.495,0.975,0.716,0.320,0.561,0.515,��쐼,2.8,��
2024/06/13,03:40,0.513,0.786,0.492,0.976,0.716,0.320,0.560,0.514,��쐼,3.2,��
2024/06/13,03:50,0.513,0.785,0.492,0.975,0.717,0.320,0.560,0.515,�쐼,2.5,��
2024/06/13,04:00,0.513,0.788,0.491,0.976,0.715,0.320,0.559,0.513,��쐼,1.7,��
2024/06/13,04:10,0.514,0.785,0.492,0.973,0.715,0.321,0.561,0.515,��쐼,1.7,��
2024/06/13,04:20,0.513,0.784,0.492,0.975,0.716,0.320,0.558,0.514,��쐼,1.5,��
2024/06/13,04:30,0.513,0.786,0.493,0.975,0.717,0.321,0.560,0.514,��,1.4,��
2024/06/13,04:40,0.512,0.786,0.492,0.976,0.717,0.321,0.560,0.513,��쐼,1.4,��
2024/06/13,04:50,0.513,0.787,0.493,0.975,0.717,0.320,0.559,0.515,��쐼,1.4,��
2024/06/13,05:00,0.512,0.788,0.492,0.976,0.716,0.321,0.559,0.514,��,1.4,��
2024/06/13,05:10,0.513,0.789,0.494,0.975,0.716,0.320,0.560,0.514,�쐼,1.1,��
2024/06/13,05:20,0.513,0.786,0.493,0.973,0.717,0.320,0.560,0.515,��,1.2,��
2024/06/13,05:30,0.515,0.789,0.494,0.974,0.717,0.320,0.558,0.514,��,1.5,��
2024/06/13,05:40,0.514,0.788,0.494,0.977,0.717,0.321,0.559,0.514,��,2.3,��
2024/06/13,05:50,0.516,0.787,0.494,0.976,0.718,0.320,0.559,0.516,��쓌,2.0,��
2024/06/13,06:00,0.515,0.788,0.494,0.976,0.717,0.320,0.562,0.515,��,1.2,��
2024/06/13,06:10,0.514,0.786,0.493,0.975,0.717,0.319,0.560,0.514,��,0.9,��
2024/06/13,06:20,0.514,0.787,0.494,0.976,0.718,0.320,0.559,0.514,��쐼,1.2,��
2024/06/13,06:30,0.514,0.787,0.492,0.975,0.716,0.321,0.560,0.515,���k��,1.1,��
2024/06/13,06:40,0.514,0.788,0.493,0.975,0.715,0.321,0.560,0.515,-,CALM,��
2024/06/13,06:50,0.513,0.787,0.494,0.975,0.715,0.320,0.560,0.516,�k�k��,0.9,��
2024/06/13,07:00,0.514,0.788,0.494,0.974,0.717,0.319,0.560,0.516,�k,0.8,��
2024/06/13,07:10,0.515,0.788,0.493,0.974,0.717,0.319,0.560,0.516,�k�k��,0.6,��
2024/06/13,07:20,0.513,0.785,0.493,0.976,0.716,0.320,0.562,0.514,�k,0.9,��
2024/06/13,07:30,0.511,0.786,0.493,0.975,0.717,0.320,0.561,0.515,�k�k��,1.5,��
2024/06/13,07:40,0.512,0.785,0.494,0.975,0.715,0.319,0.559,0.514,�k��,1.7,��
2024/06/13,07:50,0.513,0.784,0.494,0.974,0.716,0.318,0.560,0.514,���k��,0.9,��
2024/06/13,08:00,0.513,0.785,0.494,0.976,0.715,0.318,0.558,0.514,�k�k��,1.2,��
2024/06/13,08:10,0.512,0.784,0.492,0.974,0.715,0.319,0.560,0.513,-,CALM,��
2024/06/13,08:20,0.512,0.786,0.493,0.975,0.716,0.319,0.558,0.513,�k,1.2,��
2024/06/13,08:30,0.512,0.784,0.494,0.974,0.716,0.319,0.559,0.515,�k,1.2,��
2024/06/13,08:40,0.511,0.784,0.495,0.975,0.716,0.318,0.559,0.513,���k��,1.2,��
2024/06/13,08:50,0.512,0.786,0.493,0.976,0.714,0.318,0.558,0.513,��쓌,2.6,��
2024/06/13,09:00,0.511,0.787,0.494,0.975,0.716,0.318,0.558,0.512,��,3.0,��
2024/06/13,09:10,0.511,0.784,0.494,0.975,0.716,0.319,0.559,0.512,��,3.8,��
2024/06/13,09:20,0.512,0.785,0.494,0.974,0.716,0.318,0.560,0.511,��,4.1,��
2024/06/13,09:30,0.511,0.783,0.492,0.974,0.716,0.319,0.559,0.511,��쓌,3.8,��
2024/06/13,09:40,0.512,0.786,0.493,0.974,0.717,0.318,0.561,0.513,��쓌,4.2,��
2024/06/13,09:50,0.514,0.783,0.494,0.975,0.716,0.317,0.560,0.512,��쓌,6.8,��
2024/06/13,10:00,0.513,0.786,0.493,0.976,0.716,0.317,0.560,0.512,��쓌,7.6,��
2024/06/13,10:10,0.510,0.786,0.493,0.974,0.716,0.318,0.559,0.512,��,6.6,��
2024/06/13,10:20,0.512,0.785,0.494,0.975,0.717,0.319,0.560,0.512,��,6.7,��
2024/06/13,10:30,0.511,0.782,0.492,0.973,0.716,0.318,0.559,0.512,��,6.2,��
2024/06/13,10:40,0.513,0.786,0.491,0.974,0.717,0.318,0.559,0.513,��,6.7,��
2024/06/13,10:50,0.512,0.785,0.490,0.973,0.715,0.318,0.559,0.513,��,6.8,��
2024/06/13,11:00,0.512,0.785,0.493,0.974,0.717,0.318,0.559,0.514,��,5.7,��
2024/06/13,11:10,0.511,0.784,0.493,0.973,0.717,0.318,0.557,0.514,��,6.2,��
2024/06/13,11:20,0.513,0.785,0.492,0.973,0.715,0.318,0.558,0.513,��,7.5,��
2024/06/13,11:30,0.513,0.785,0.493,0.971,0.717,0.318,0.557,0.512,��,6.1,��
2024/06/13,11:40,0.514,0.784,0.491,0.974,0.716,0.318,0.559,0.513,��,8.2,��
2024/06/13,11:50,0.513,0.785,0.492,0.975,0.717,0.318,0.558,0.514,��,6.8,��
2024/06/13,12:00,0.512,0.786,0.492,0.974,0.716,0.318,0.557,0.512,��,6.1,��
2024/06/13,12:10,0.513,0.788,0.492,0.974,0.716,0.320,0.557,0.512,��,6.4,��
2024/06/13,12:20,0.513,0.786,0.494,0.974,0.718,0.319,0.557,0.513,��,6.1,��
2024/06/13,12:30,0.513,0.789,0.493,0.975,0.717,0.318,0.556,0.513,��,7.4,��
2024/06/13,12:40,0.511,0.787,0.494,0.975,0.717,0.320,0.558,0.513,��쓌,8.8,��
2024/06/13,12:50,0.512,0.788,0.494,0.974,0.719,0.318,0.558,0.513,��쓌,8.9,��
2024/06/13,13:00,0.515,0.787,0.495,0.973,0.718,0.319,0.556,0.514,��,9.4,��
2024/06/13,13:10,0.514,0.787,0.493,0.973,0.719,0.319,0.557,0.515,��쓌,10.3,��
2024/06/13,13:20,0.513,0.785,0.493,0.971,0.718,0.319,0.557,0.512,��,8.9,��
2024/06/13,13:30,0.514,0.785,0.492,0.973,0.717,0.319,0.558,0.513,��,8.7,��
2024/06/13,13:40,0.513,0.785,0.493,0.973,0.718,0.319,0.557,0.514,��,9.9,��
2024/06/13,13:50,0.515,0.786,0.494,0.974,0.717,0.318,0.557,0.513,��,8.9,��
2024/06/13,14:00,0.514,0.784,0.491,0.974,0.720,0.319,0.556,0.513,��,8.0,��
2024/06/13,14:10,0.514,0.786,0.494,0.973,0.718,0.319,0.556,0.514,��,8.3,��
2024/06/13,14:20,0.514,0.787,0.493,0.974,0.720,0.319,0.557,0.513,��,7.6,��
2024/06/13,14:30,0.514,0.785,0.492,0.975,0.717,0.319,0.556,0.514,��,8.7,��
2024/06/13,14:40,0.512,0.787,0.493,0.975,0.717,0.318,0.557,0.514,��,9.0,��
2024/06/13,14:50,0.513,0.785,0.493,0.973,0.716,0.318,0.556,0.512,��,9.5,��
2024/06/13,15:00,0.513,0.785,0.493,0.973,0.714,0.319,0.557,0.513,��,7.9,��
2024/06/13,15:10,0.513,0.786,0.493,0.975,0.715,0.318,0.557,0.512,��,8.5,��
2024/06/13,15:20,0.513,0.786,0.493,0.974,0.717,0.319,0.555,0.513,��,10.8,��
2024/06/13,15:30,0.513,0.786,0.492,0.976,0.717,0.319,0.556,0.512,��쓌,9.0,��
2024/06/13,15:40,0.512,0.785,0.491,0.974,0.716,0.319,0.556,0.513,��,7.8,��
2024/06/13,15:50,0.514,0.785,0.493,0.975,0.716,0.316,0.555,0.514,��,8.1,��
2024/06/13,16:00,0.514,0.785,0.493,0.977,0.716,0.319,0.554,0.513,��,10.6,��
2024/06/13,16:10,0.512,0.785,0.494,0.976,0.715,0.319,0.558,0.514,��쓌,10.6,��
2024/06/13,16:20,0.512,0.784,0.492,0.977,0.717,0.319,0.557,0.512,��,9.4,��
2024/06/13,16:30,0.513,0.785,0.495,0.977,0.718,0.319,0.557,0.512,��,7.8,��
2024/06/13,16:40,0.512,0.786,0.493,0.977,0.717,0.318,0.557,0.513,��,7.9,��
2024/06/13,16:50,0.513,0.788,0.492,0.978,0.719,0.319,0.558,0.513,��,8.5,��
2024/06/13,17:00,0.512,0.788,0.493,0.979,0.717,0.318,0.559,0.513,��,7.2,��
2024/06/13,17:10,0.511,0.787,0.493,0.979,0.718,0.319,0.558,0.516,��,7.3,��
2024/06/13,17:20,0.514,0.787,0.494,0.978,0.717,0.319,0.558,0.514,��,7.1,��
2024/06/13,17:30,0.512,0.788,0.494,0.977,0.719,0.319,0.558,0.514,��,7.6,��
2024/06/13,17:40,0.513,0.787,0.493,0.977,0.718,0.318,0.558,0.514,��,6.7,��
2024/06/13,17:50,0.513,0.785,0.493,0.978,0.717,0.318,0.557,0.515,��,6.4,��
2024/06/13,18:00,0.513,0.787,0.493,0.977,0.718,0.318,0.557,0.516,��,6.1,��
2024/06/13,18:10,0.512,0.789,0.494,0.979,0.717,0.320,0.558,0.514,��,6.4,��
2024/06/13,18:20,0.511,0.787,0.495,0.977,0.717,0.318,0.556,0.516,��,5.1,��
2024/06/13,18:30,0.513,0.788,0.494,0.978,0.716,0.319,0.557,0.516,��,3.5,��
2024/06/13,18:40,0.512,0.787,0.495,0.980,0.719,0.318,0.558,0.514,��,3.1,��
2024/06/13,18:50,0.513,0.789,0.494,0.979,0.719,0.319,0.557,0.515,��쐼,2.2,��
2024/06/13,19:00,0.515,0.788,0.493,0.977,0.718,0.319,0.556,0.515,�쐼,2.3,��
2024/06/13,19:10,0.513,0.788,0.494,0.979,0.719,0.320,0.556,0.515,��쐼,2.0,��
2024/06/13,19:20,0.515,0.788,0.495,0.980,0.718,0.320,0.558,0.516,�쐼,2.2,��
2024/06/13,19:30,0.513,0.788,0.493,0.980,0.718,0.321,0.557,0.516,�쐼,1.4,��
2024/06/13,19:40,0.514,0.787,0.495,0.977,0.718,0.321,0.559,0.516,-,CALM,��
2024/06/13,19:50,0.515,0.789,0.495,0.977,0.717,0.320,0.558,0.515,�쐼,0.6,��
2024/06/13,20:00,0.514,0.791,0.495,0.977,0.719,0.320,0.558,0.516,�k��,1.2,��
2024/06/13,20:10,0.515,0.789,0.496,0.978,0.720,0.321,0.557,0.515,�k�k��,1.5,��
2024/06/13,20:20,0.514,0.790,0.492,0.977,0.720,0.320,0.557,0.515,-,CALM,��
2024/06/13,20:30,0.514,0.791,0.496,0.979,0.718,0.321,0.557,0.514,�k��,1.5,��
2024/06/13,20:40,0.516,0.788,0.495,0.978,0.719,0.321,0.558,0.516,�k�k��,2.0,��
2024/06/13,20:50,0.516,0.789,0.495,0.978,0.718,0.321,0.556,0.514,-,CALM,��
2024/06/13,21:00,0.515,0.788,0.495,0.977,0.720,0.321,0.556,0.515,�쐼,0.9,��
2024/06/13,21:10,0.515,0.789,0.494,0.979,0.721,0.320,0.558,0.516,�k�k��,0.9,��
2024/06/13,21:20,0.516,0.791,0.494,0.979,0.718,0.321,0.559,0.516,-,CALM,��
2024/06/13,21:30,0.516,0.790,0.496,0.979,0.720,0.322,0.559,0.516,�k,1.2,��
2024/06/13,21:40,0.514,0.789,0.495,0.978,0.719,0.320,0.559,0.515,�k,0.6,��
2024/06/13,21:50,0.515,0.789,0.494,0.978,0.721,0.320,0.559,0.515,�k�k��,0.8,��
2024/06/13,22:00,0.514,0.790,0.495,0.980,0.718,0.321,0.557,0.515,�k�k��,1.2,��
2024/06/13,22:10,0.516,0.788,0.495,0.980,0.720,0.321,0.559,0.515,�k,0.8,��
2024/06/13,22:20,0.516,0.790,0.495,0.978,0.718,0.320,0.559,0.515,�k��,1.1,��
2024/06/13,22:30,0.515,0.789,0.496,0.977,0.719,0.323,0.560,0.518,�k�k��,0.9,��
2024/06/13,22:40,0.517,0.788,0.495,0.979,0.721,0.323,0.562,0.517,�k��,1.5,��
2024/06/13,22:50,0.515,0.791,0.496,0.979,0.720,0.322,0.561,0.516,�k�k��,2.0,��
2024/06/13,23:00,0.517,0.790,0.496,0.981,0.720,0.322,0.560,0.516,�k�k��,2.0,��
2024/06/13,23:10,0.517,0.789,0.495,0.979,0.718,0.323,0.561,0.516,�k��,1.7,��
2024/06/13,23:20,0.517,0.791,0.495,0.979,0.721,0.321,0.560,0.516,�k��,1.7,��
2024/06/13,23:30,0.516,0.790,0.496,0.980,0.721,0.323,0.561,0.516,�k��,1.7,��
2024/06/13,23:40,0.516,0.789,0.498,0.980,0.719,0.323,0.560,0.514,�k��,1.5,��
2024/06/13,23:50,0.517,0.789,0.494,0.983,0.719,0.323,0.560,0.515,�k�k��,1.2,��
